Temperature
13 13 13 13 13 13 13 13 13 13 14 14 15 15 15 15 16 16 16 16 16 16 16 16 16 16 16 15 15 15 14 14 13 13 12 11 12 12
13 13 13 13 13 13 13 13 13 12 13 14 14 15 15 15 15 15 15 15 15 16 16 15 15 15 15 15 15 14 14 14 13 12 12 12 12 13
13 13 13 13 13 13 13 13 13 13 12 13 14 14 15 15 15 15 15 15 15 15 15 15 15 15 15 14 14 14 14 13 13 12 12 12 13 13
12 12 12 12 12 12 12 12 12 13 13 13 14 14 15 15 15 15 15 15 14 14 14 14 14 14 14 14 14 13 13 13 13 13 13 13 13 13
12 11 11 11 11 12 12 12 12 13 13 13 13 14 14 14 14 14 14 14 14 14 14 13 13 13 13 13 13 13 13 13 13 13 13 14 14 14
11 11 11 11 11 11 11 12 12 12 12 12 13 13 13 13 13 13 13 13 13 13 13 13 13 13 13 13 13 13 13 13 13 14 14 14 14 14
11 11 11 11 11 11 11 11 11 12 12 12 12 12 12 12 12 12 13 13 13 13 13 13 13 13 13 13 13 13 13 14 14 14 14 14 14 14
10 10 10 10 11 11 11 11 11 11 11 11 11 11 11 11 12 12 12 12 12 12 13 13 13 13 14 14 14 14 14 14 14 14 14 14 14 14
10 10 10 10 11 11 11 11 11 11 11 11 11 10 11 11 11 12 12 12 12 12 12 13 13 13 13 13 13 14 14 14 14 14 14 14 14 14
10 10 10 10 10 10 11 11 11 11 11 11 11 11 11 11 11 11 11 11 11 11 12 12 12 12 13 13 13 13 13 14 14 14 14 14 14 14
10 10 10 10 10 10 10 11 11 11 10 10 10 11 11 11 11 11 11 11 11 11 11 11 11 11 12 12 13 13 13 13 13 13 14 14 14 14
9 9 9 9 9 10 10 10 10 10 10 10 11 11 11 11 11 11 11 11 11 10 10 10 10 11 11 11 12 12 12 13 13 13 13 13 13 14
9 9 9 9 9 9 9 9 9 9 10 10 10 10 10 11 11 11 11 11 11 10 10 10 10 10 10 11 11 11 11 12 12 12 12 12 13 13
8 8 8 8 8 8 8 9 9 9 9 9 9 9 10 10 10 10 10 10 10 10 10 10 10 10 10 10 10 10 11 11 11 11 11 11 12 12
8 8 8 8 8 8 8 8 8 8 8 8 8 8 8 9 9 9 10 10 10 10 10 10 10 10 10 10 10 10 10 10 10 10 10 11 11 11
8 8 8 8 8 8 8 8 8 7 7 7 7 7 8 8 8 8 9 9 9 10 10 10 10 10 10 10 10 10 10 10 10 10 10 10 10 10
8 8 8 8 7 7 7 7 7 7 7 7 7 7 7 7 7 7 7 8 8 8 9 9 9 10 10 10 10 9 9 9 9 9 9 9 9 9
8 8 7 7 7 7 6 6 6 6 6 5 6 6 6 6 6 6 6 7 7 7 7 8 9 9 9 9 9 9 9 9 9 9 9 9 9 8
8 7 7 7 7 6 6 5 5 5 5 4 4 4 5 5 5 5 5 5 6 6 6 7 7 8 8 8 8 8 8 8 8 8 8 8 8 8
8 7 7 7 6 6 6 5 5 4 4 4 4 4 4 4 4 4 4 4 4 5 5 6 6 6 6 6 7 7 7 8 8 8 8 8 8 8
8 7 7 7 6 6 5 5 4 4 4 3 3 3 3 3 3 3 3 3 3 4 4 4 5 5 5 6 6 6 6 7 7 7 8 8 8 8
8 7 7 7 6 6 5 5 4 4 3 3 3 3 2 2 2 2 3 3 3 3 3 3 4 5 5 5 5 5 6 6 6 7 7 7 7 8
8 8 7 7 6 6 5 5 4 4 3 3 3 2 2 2 2 2 2 2 2 2 2 3 3 3 4 4 4 5 5 5 5 6 6 6 7 7
Wind_Speed
4 4 3 3 3 2 2 2 2 3 3 3 3 3 3 3 3 3 3 3 3 4 6 7 6 6 9 13 17 23 28 31 32 32 31 29 27 24
3 4 3 3 3 3 2 2 2 3 4 3 4 5 5 4 4 4 3 2 1 2 2 2 0 4 10 14 20 25 28 30 31 30 29 27 25 23
4 5 6 5 4 4 4 3 2 2 5 5 4 4 5 4 2 2 2 1 0 0 1 3 5 10 14 18 22 26 28 28 28 28 27 25 23 22
7 7 7 6 6 5 5 5 4 3 4 6 4 3 4 3 1 2 2 2 1 1 3 5 9 13 17 20 23 25 26 26 26 26 25 24 23 22
7 7 6 6 7 6 6 6 5 4 3 4 4 3 3 2 2 1 2 1 2 3 3 5 9 13 16 19 21 23 24 24 24 25 24 24 23 22
7 7 6 6 6 6 6 7 6 6 5 4 3 3 3 3 2 0 1 1 1 2 2 4 7 10 13 16 19 21 22 22 23 23 23 23 23 23
9 9 9 10 10 7 5 6 6 6 6 5 5 4 5 5 4 2 1 1 1 2 2 2 4 5 7 11 14 17 19 20 20 21 22 22 22 22
9 8 9 12 12 12 11 9 8 6 6 5 5 5 6 5 5 4 1 1 2 2 3 3 4 5 6 8 13 16 18 19 19 19 20 21 22 22
9 9 8 10 12 10 10 10 10 10 8 3 5 5 5 5 7 6 4 1 0 1 2 3 3 4 5 8 14 17 19 20 20 21 21 22 22 22
8 8 8 9 11 10 9 11 11 11 10 6 4 5 5 6 5 4 4 2 2 3 2 1 1 1 2 4 11 16 18 20 20 21 22 23 23 23
7 8 9 9 13 13 11 10 10 10 10 11 11 10 11 12 9 6 6 5 3 4 4 2 1 1 0 1 3 8 11 14 16 18 19 21 21 20
5 6 10 11 12 11 8 8 9 7 8 10 11 12 12 12 13 9 6 5 3 3 4 2 2 2 1 1 1 2 4 6 9 11 14 16 16 12
5 5 6 12 11 11 8 6 5 5 5 7 8 9 10 10 11 10 8 4 3 2 3 2 2 1 1 2 1 1 2 2 3 5 8 11 13 13
4 4 5 9 10 11 8 9 10 8 6 7 8 8 8 8 9 9 9 8 4 3 4 2 1 1 1 1 2 1 2 2 3 3 4 6 9 13
2 5 7 9 8 7 11 12 9 7 6 7 7 6 5 6 7 7 9 8 6 8 8 5 3 2 2 2 2 2 2 1 1 2 2 3 4 5
4 5 7 9 8 7 7 7 6 6 5 5 4 5 5 6 7 7 7 7 6 6 8 11 7 4 2 2 1 2 2 2 2 3 2 2 1 1
2 3 5 5 6 6 5 6 6 6 6 5 5 6 6 7 6 6 6 6 6 6 8 8 8 6 3 3 3 3 3 2 1 2 3 4 4 4
4 4 3 3 4 4 4 4 5 6 5 5 6 6 6 7 7 6 6 6 6 6 7 7 8 6 4 4 7 6 5 3 1 1 2 3 2 2
3 2 2 2 2 2 2 3 3 4 4 5 5 6 6 6 6 7 7 7 7 7 7 7 7 6 6 5 5 8 6 4 3 1 1 1 2 1
2 2 2 2 1 1 1 1 2 3 3 4 5 5 6 6 6 7 7 8 7 7 7 7 7 7 4 4 3 4 7 5 3 2 0 1 1 2
4 4 3 3 3 2 2 1 1 1 2 3 4 4 5 5 6 6 6 8 7 7 8 8 8 9 5 3 2 2 3 5 4 2 1 1 0 1
6 6 5 5 4 4 3 3 2 1 0 1 2 3 4 4 5 6 6 6 6 7 7 8 9 8 5 5 4 3 3 3 4 5 6 3 0 2
8 7 7 6 6 5 4 5 5 3 2 2 1 2 3 3 4 4 5 5 6 7 8 8 8 7 7 6 6 5 5 4 2 2 2 6 6 3
Wind_Direction
6 14 19 11 10 358 340 308 279 281 280 272 283 298 292 273 248 238 241 260 273 296 304 301 287 243 204 188 174 164 163 165 167 170 175 178 182 185
358 12 16 11 4 354 331 301 272 267 277 276 263 277 284 273 238 222 225 226 256 306 321 334 36 150 153 152 150 150 153 157 162 167 172 177 182 186
22 29 24 22 20 11 4 349 321 281 274 283 264 277 272 265 227 187 182 184 200 138 104 107 118 127 133 137 140 143 148 154 161 166 172 178 182 187
36 37 29 31 33 19 15 9 348 316 283 292 300 308 297 308 269 176 154 167 149 144 137 128 127 128 130 134 138 142 148 155 161 168 174 179 185 191
37 35 24 30 31 20 17 13 356 347 331 318 323 324 323 342 345 113 142 126 146 153 145 134 133 133 135 139 143 148 153 159 166 172 178 184 191 198
34 29 24 27 20 10 12 11 6 8 6 1 350 343 331 328 337 338 169 151 152 162 141 132 140 141 145 148 153 157 162 168 174 180 185 192 199 205
33 30 31 34 31 23 17 8 13 18 17 18 14 7 3 358 351 334 233 159 151 152 153 157 151 153 162 165 168 172 176 180 185 190 195 201 207 212
35 23 26 27 17 16 18 24 28 24 17 19 18 12 360 350 337 329 304 177 181 169 169 174 173 180 181 187 193 193 195 197 201 204 208 212 216 219
39 31 30 19 16 11 10 23 31 31 27 12 19 7 345 336 337 342 347 345 45 119 154 166 181 199 199 203 203 207 211 213 215 217 220 223 225 227
41 34 32 23 17 12 22 27 29 29 25 28 14 348 333 329 330 321 324 350 45 34 28 103 142 203 199 208 212 215 220 223 225 227 228 229 230 232
35 32 30 24 8 21 33 28 27 22 23 37 39 29 20 16 10 14 13 20 26 23 15 29 35 21 347 250 218 218 222 225 228 230 232 233 233 233
26 23 23 18 10 21 34 33 26 4 2 20 26 23 22 21 23 25 13 18 14 17 6 17 20 15 354 336 262 220 218 223 226 229 232 234 229 225
36 16 6 8 20 25 31 32 8 354 15 27 28 25 21 19 18 17 13 5 8 8 351 357 13 13 354 322 319 274 241 238 230 237 237 236 226 216
37 1 355 15 32 36 35 27 27 34 42 42 37 27 20 13 5 5 11 12 6 344 332 328 328 317 318 308 302 317 279 251 243 247 237 226 229 228
19 8 19 27 36 42 37 34 36 41 43 42 33 18 359 350 1 3 10 13 20 27 20 5 335 305 279 285 301 315 323 340 335 278 235 213 217 213
18 13 30 42 47 39 33 31 33 34 37 31 11 0 359 7 14 13 12 8 8 4 4 5 359 335 314 298 290 315 327 342 15 38 38 37 8 229
25 42 43 43 44 39 33 30 27 28 28 20 17 15 14 15 13 6 11 16 16 4 360 357 354 354 339 346 5 6 1 1 27 63 77 74 50 42
87 74 64 58 54 44 35 29 27 25 19 21 24 21 17 14 13 13 16 17 14 7 4 360 359 5 16 55 39 18 15 3 348 111 120 103 84 44
105 112 111 100 83 64 49 42 32 21 19 27 26 19 14 13 13 12 13 13 11 8 7 5 12 16 10 357 14 37 24 2 340 290 163 128 141 183
178 176 178 175 167 147 100 62 40 29 29 26 22 17 14 11 11 8 8 7 6 5 7 10 10 4 352 326 325 359 27 20 353 335 79 57 9 347
216 213 209 204 203 199 194 183 132 50 36 30 26 20 15 12 8 4 1 359 3 4 3 359 343 326 302 293 312 342 12 25 27 360 340 144 146 284
224 222 220 217 212 205 202 202 203 203 184 34 25 17 13 11 5 1 359 358 359 358 352 349 348 355 2 359 351 346 349 0 21 42 52 56 161 225
225 224 222 218 214 208 205 208 214 219 222 232 284 345 357 357 355 358 0 3 2 1 358 356 360 4 5 1 352 354 1 4 2 6 2 358 359 315
Height
1484 1483 1481 1480 1479 1478 1478 1478 1478 1476 1474 1474 1474 1474 1474 1473 1472 1473 1472 1472 1472 1470 1469 1467 1465 1464 1464 1465 1468 1472 1477 1482 1487 1493 1499 1505 1512 1519
1484 1483 1482 1480 1479 1478 1477 1476 1476 1475 1473 1472 1471 1471 1470 1469 1469 1468 1468 1468 1468 1467 1465 1463 1462 1461 1462 1464 1466 1470 1475 1480 1485 1491 1498 1504 1511 1518
1484 1482 1481 1479 1478 1477 1476 1475 1474 1473 1471 1469 1468 1467 1466 1466 1465 1465 1465 1465 1465 1464 1463 1462 1461 1461 1461 1463 1466 1469 1474 1479 1485 1491 1498 1504 1511 1516
1483 1482 1481 1479 1478 1477 1475 1474 1472 1471 1470 1467 1465 1464 1463 1463 1462 1462 1462 1462 1462 1462 1461 1461 1461 1461 1462 1464 1466 1470 1474 1480 1485 1492 1498 1504 1510 1514
1484 1482 1481 1480 1479 1477 1475 1473 1472 1470 1468 1466 1464 1462 1461 1460 1459 1459 1459 1459 1460 1460 1460 1461 1461 1462 1463 1465 1467 1471 1475 1480 1486 1492 1498 1503 1508 1512
1485 1484 1483 1481 1480 1478 1476 1474 1471 1469 1467 1465 1463 1462 1460 1458 1457 1457 1457 1457 1458 1459 1460 1461 1461 1462 1464 1466 1469 1472 1477 1482 1487 1492 1497 1501 1505 1509
1487 1486 1485 1483 1482 1480 1478 1475 1473 1470 1467 1465 1463 1461 1459 1458 1456 1455 1455 1455 1455 1457 1458 1460 1461 1462 1464 1467 1470 1474 1478 1482 1487 1491 1495 1499 1502 1505
1490 1489 1488 1486 1484 1482 1480 1477 1475 1472 1469 1466 1464 1462 1460 1458 1456 1455 1454 1453 1453 1455 1457 1459 1461 1463 1465 1467 1470 1474 1477 1481 1485 1489 1492 1495 1498 1500
1492 1491 1490 1489 1487 1484 1482 1479 1477 1474 1472 1470 1467 1465 1462 1460 1457 1455 1453 1452 1452 1453 1455 1456 1459 1461 1464 1467 1470 1473 1476 1479 1482 1485 1488 1490 1492 1494
1495 1493 1492 1490 1488 1486 1484 1481 1479 1477 1474 1473 1471 1468 1466 1463 1460 1457 1455 1453 1452 1451 1452 1453 1456 1459 1462 1465 1468 1470 1473 1475 1478 1481 1483 1485 1486 1488
1496 1495 1493 1491 1490 1488 1485 1483 1481 1479 1477 1476 1474 1472 1469 1466 1463 1461 1458 1456 1454 1453 1452 1452 1454 1456 1458 1461 1464 1466 1468 1470 1473 1475 1477 1479 1481 1482
1496 1495 1493 1491 1490 1488 1486 1484 1482 1481 1479 1478 1476 1474 1472 1469 1466 1464 1462 1460 1458 1457 1456 1455 1454 1455 1456 1457 1459 1461 1463 1465 1466 1468 1470 1472 1474 1475
1496 1494 1493 1491 1490 1488 1486 1484 1483 1482 1480 1478 1476 1475 1473 1471 1469 1467 1465 1463 1461 1460 1459 1458 1457 1456 1456 1456 1456 1457 1458 1459 1460 1461 1463 1464 1466 1468
1495 1494 1492 1491 1489 1488 1486 1485 1484 1482 1480 1478 1476 1475 1473 1472 1470 1469 1467 1465 1463 1462 1461 1459 1458 1457 1456 1455 1455 1455 1455 1455 1455 1455 1456 1457 1458 1460
1494 1493 1492 1491 1490 1488 1487 1486 1484 1483 1481 1479 1477 1476 1474 1473 1471 1469 1467 1466 1464 1463 1461 1460 1458 1457 1456 1455 1453 1453 1452 1452 1451 1451 1451 1451 1452 1453
1494 1493 1492 1491 1490 1489 1488 1486 1485 1483 1481 1480 1478 1477 1475 1473 1471 1468 1466 1465 1463 1462 1461 1460 1458 1457 1455 1454 1453 1452 1451 1451 1450 1449 1448 1447 1447 1447
1494 1493 1492 1492 1491 1489 1488 1487 1485 1483 1482 1480 1478 1476 1474 1472 1470 1468 1466 1464 1463 1461 1459 1458 1457 1456 1455 1454 1452 1451 1450 1450 1449 1448 1447 1446 1444 1443
1494 1494 1493 1492 1491 1490 1488 1487 1485 1483 1482 1480 1478 1476 1474 1472 1470 1468 1466 1465 1463 1461 1459 1457 1456 1455 1455 1454 1453 1451 1450 1449 1449 1448 1447 1446 1445 1444
1495 1494 1493 1492 1491 1490 1488 1487 1485 1483 1482 1480 1478 1476 1474 1472 1470 1468 1466 1464 1462 1461 1459 1457 1455 1454 1453 1452 1452 1451 1450 1449 1448 1448 1448 1447 1447 1446
1494 1494 1493 1492 1491 1490 1489 1487 1485 1484 1482 1480 1478 1476 1474 1472 1470 1468 1466 1464 1463 1461 1459 1457 1455 1454 1453 1452 1451 1450 1449 1448 1448 1447 1447 1447 1448 1448
1493 1492 1492 1491 1490 1489 1488 1487 1485 1483 1482 1480 1478 1476 1474 1472 1470 1469 1467 1465 1463 1461 1459 1457 1455 1454 1452 1451 1450 1449 1448 1447 1447 1446 1446 1446 1447 1448
1490 1490 1490 1490 1489 1488 1487 1486 1484 1483 1481 1480 1478 1476 1474 1472 1470 1469 1467 1465 1463 1461 1459 1457 1455 1453 1451 1450 1448 1447 1446 1446 1445 1445 1445 1445 1445 1446
1487 1487 1487 1487 1486 1486 1485 1484 1483 1482 1480 1479 1477 1476 1474 1472 1470 1469 1467 1465 1464 1462 1459 1457 1455 1452 1450 1449 1447 1446 1445 1444 1444 1443 1444 1444 1444 1444